Regional Weather Roundup
Issued by NWS

Home | Current Version | Previous Version | Text Only | Print | Product List | Glossary On
Versions: 1 2 3 4 5 6 7 8 9 10 11 12 13 14 15 16 17 18 19 20 21 22 23 24 25 26 27 28 29 30 31 32 33 34 35 36 37 38 39 40 41 42 43 44 45 46 47 48 49 50
000
ASUS46 KLOX 240112
RWRCA

SOUTHERN CALIFORNIA WEATHER ROUNDUP
NATIONAL WEATHER SERVICE OXNARD CALIFORNIA
600 PM PDT WED APR 23 2014

NOTE: "FAIR" INDICATES FEW OR NO CLOUDS BELOW 12,000 FEET WITH NO
SIGNIFICANT WEATHER AND/OR OBSTRUCTIONS TO VISIBILITY.

  -  STATIONS PRECEEDED BY AN ASTERISK (*) ARE NOT NWS OR FAA
     STATIONS AND ARE NOT SUBJECT TO NWS AND FAA QUALITY CONTROL.

CAZ041-042-087-240200-
LA AND ORANGE COUNTY COASTAL AREAS


CITY           SKY/WX    TMP DP  RH WIND       PRES   REMARKS
L.A. DOWNTOWN  SUNNY     69  38  32 W5        29.91R
L.A. AIRPORT   MOSUNNY   66  47  50 W13       29.92S
LONG BEACH     SUNNY     70  34  26 W14       29.90S

CITY           SKY/WX    TMP DP  RH WIND       PRES   REMARKS
AVALON           N/A     66 N/A N/A MISG        N/A
FULLERTON      MOSUNNY   73  39  29 SW8       29.89S
*GETTY CENTER    N/A     64  46  52 S6          N/A
HAWTHORNE      SUNNY     67  44  43 SW10      29.92R
*LEO CARRILLO    N/A     64  51  63 W12G26      N/A
*LOS ALAMITOS  MOSUNNY   73  40  30 W9        29.90S
*REDONDO BEACH   N/A     66  49  54 CALM      29.91S
SANTA ANA      MOSUNNY   69  41  36 SW9       29.91S
STA MONICA APT SUNNY     67  49  52 SE10G23   29.92S
TORRANCE       MOSUNNY   68  45  42 W13       29.92S
*UCLA            N/A     64  43  45 SW6       29.89S

$$

CAZ547-548-048-240200-
LA COUNTY VALLEYS AND INLAND EMPIRE


CITY           SKY/WX    TMP DP  RH WIND       PRES   REMARKS
BURBANK        SUNNY     70  34  26 S8        29.90S
VAN NUYS       SUNNY     71  36  27 SE10      29.89S

CITY           SKY/WX    TMP DP  RH WIND       PRES   REMARKS
CORONA AIRPORT PTCLDY    71  48  43 W12         N/A
*CHATSWORTH      N/A     74  39  29 W5        29.86S
CHINO          PTSUNNY   72  46  39 SW13      29.90S
MARCH AFB      MOSUNNY   72  44  36 NW13      29.90S
*NORTHRIDGE      N/A     72  34  25 E3          N/A
ONTARIO        PTSUNNY   73  44  35 W13       29.89S
*PASADENA        N/A     72  41  33 E7          N/A
RIVERSIDE      MOSUNNY   73  45  36 W12G18    29.89R
SAN BERNARDINO PTSUNNY   73  41  31 SW9       29.89S
*SAN GABRIEL     N/A     71  33  24 CALM      29.87S
*SAN RAFAEL HI   N/A     72  40  31 E7          N/A
*SAUGUS          N/A     73  30  20 NW13        N/A
*WHITEMAN AP   PTSUNNY   70  36  28 E8        29.93S
*WOODLAND HILL   N/A     75  37  25 N2          N/A

$$

CAZ054-055-240200-
LA AND SAN BERNARDINO COUNTY MOUNTAINS


CITY           SKY/WX    TMP DP  RH WIND       PRES   REMARKS
*ACTON           N/A     74  22  14 NW7         N/A
*BIG BEAR AIRP CLEAR     55  -4   8 E7        30.06R
*BIG PINES       N/A     53  14  21 CALM        N/A
*CHILAO          N/A     63  32  31 SW8         N/A
MT WILSON NWS    N/A     59  34  38 MISG        N/A
SANDBERG       MOSUNNY   53  30  41 N22G32    30.03S
*WARM SPRINGS    N/A     59  25  27 W20         N/A

$$

CAZ028-029-059-060-099-240200-
ANTELOPE VALLEY AND SURROUNDING AREAS


CITY           SKY/WX    TMP DP  RH WIND       PRES   REMARKS
LANCASTER      MOSUNNY   67  25  20 W23G30    29.94R
PALMDALE       SUNNY     69  24  18 NW21      29.95R
*POPPY PARK      N/A     63  25  23 W23G35      N/A

CITY           SKY/WX    TMP DP  RH WIND       PRES   REMARKS
29 PALMS       MOSUNNY   77  14   9 N3        29.94S
BARSTOW/DAGGET SUNNY     76   9   7 SE3       29.88S
BISHOP         SUNNY     71  10   9 S12       29.90S
CHINA LAKE     PTSUNNY   76  15  10 SE5       29.88F
EDWARDS AFB    PTSUNNY   73  27  18 NW20      29.90F
MOJAVE         FAIR      64  32  29 W26G32    29.95S
NEEDLES        SUNNY     84  10   6 NE12      29.82S
VICTORVILLE    MOSUNNY   72  14  11 W6        29.93S

$$

CAZ039-040-240200-
VENTURA AND SANTA BARBARA COUNTY COAST


CITY           SKY/WX    TMP DP  RH WIND       PRES   REMARKS
CAMARILLO      SUNNY     68  46  45 CALM      29.89F
NWS OXNARD       N/A     68  49  51 W5        29.89F
OXNARD AIRPORT SUNNY     63  50  62 W10       29.90S
*POINT MUGU    PTSUNNY   67  50  54 W13       29.89F
SBA APT/GOLETA SUNNY     69  44  40 SE6       29.88S
*SANTA BARBARA   N/A     73  33  23 CALM      29.96F
*VENTURA         N/A     72  47  40 SW3       29.93S

$$

CAZ044-045-240200-
VENTURA COUNTY VALLEYS


CITY           SKY/WX    TMP DP  RH WIND       PRES   REMARKS
*SIMI VALLEY     N/A     72  37  28 CALM      29.86F
*OJAI            N/A     77  40  25 NW1       29.84S
*FILLMORE        N/A     78  45  30 CALM      29.80S

$$

CAZ053-240200-
VENTURA COUNTY MOUNTAINS


CITY           SKY/WX    TMP DP  RH WIND       PRES   REMARKS
*LOCKWOOD VLY    N/A     57  25  28 MISG        N/A
*ROSE VALLEY     N/A     66  32  28 MISG        N/A

$$

CAZ034-035-036-240200-
CENTRAL COAST AND SANTA YNEZ VALLEY


CITY           SKY/WX    TMP DP  RH WIND       PRES   REMARKS
SAN LUIS OBISP MOSUNNY   60  45  57 NW23      30.00F
SANTA MARIA    SUNNY     60  45  57 W17G29    29.99S

CITY           SKY/WX    TMP DP  RH WIND       PRES   REMARKS
*CAL POLY SLO    N/A     66  45  45 SW8G20      N/A
*CAMBRIA         N/A     57  49  73 E5        29.92S
*LOMPOC        SUNNY     61  43  51 W18       30.02S
*PISMO BEACH     N/A     63  47  55 SW3       30.00S
*SANTA YNEZ    FAIR      64  37  36 W17G24    29.95F

$$

CAZ037-038-051-240200-
SAN LUIS OBISPO COUNTY INTERIOR AND CUYAMA VALLEY


CITY           SKY/WX    TMP DP  RH WIND       PRES   REMARKS
*CUYAMA          N/A     62  23  22 CALM      29.93S
PASO ROBLES    SUNNY     74  31  20 NW18      30.00S

$$

CAZ032-033-061-240200-
SOUTHERN DESERTS


CITY           SKY/WX    TMP DP  RH WIND       PRES   REMARKS
BLYTHE         SUNNY     85  13   7 N10       29.78F
IMPERIAL       MOSUNNY   86  16   7 N3        29.78F
PALM SPRINGS   PTSUNNY   85  16   7 NW7       29.80F
THERMAL        SUNNY     87  18   8 CALM      29.76S

$$

ELSEWHERE ACROSS THE WESTERN UNITED STATES AND MEXICO


CITY           SKY/WX    TMP DP  RH WIND       PRES   REMARKS
DENVER, CO     CLOUDY    45  40  82 NE23G32   29.75R THUNDER
GRAND CANYON,  SUNNY     56  11  16 VRB7      30.00S
HONOLULU, HI   MOSUNNY   82  61  47 NE16G29   30.04S
KAHULUI, MAUI  LGT RAIN  81  68  65 NE22G37   30.03S
LAKE TAHOE, CA MOSUNNY   51  27  39 SW6       30.08R
LAS VEGAS, NV  MOSUNNY   75  14  10 S9        29.83F
MAMMOTH LAKES, FAIR      61  16  17 NW12G17   30.02R
MEXICO CITY, M PTCLDY    68  43  40 W5        30.23R
PHOENIX, AZ    MOSUNNY   85  10   6 S10       29.76S
PORTLAND, OR   LGT RAIN  53  50  89 S10       29.82F
RENO, NV       PTSUNNY   64  26  23 W13       29.99R
SALT LAKE CITY MOSUNNY   51  16  24 VRB3      30.05
SAN DIEGO, CA  PTSUNNY   68  51  54 W9        29.93S
SAN FRANCISCO, MOSUNNY   62  47  57 W26G36    30.11S
SAN JOSE, CA   MOSUNNY   65  40  39 NW14      30.09S
SEATTLE, WA    LGT RAIN  50  45  81 SE8       29.80F
TIJUANA, MEX   MOSUNNY   66  46  48 NW13      29.95S

$$

STATION/POSITION TIME  TEMP    WIND        PRES    VSBY  WAVE
                       AIR SEA DIR/SP/G                  HT/PER
                 (UTC) (F)     (DEG/KT/KT) (MB)    (MI)  (FT/S)
POINT ARGUELLO B NOT AVBL
WEST SANTA BARBA 0100   54 53  330/ 27/ 31 1014.1F        10/12
POINT CONCEPTION NOT AVBL
EAST SANTA BARBA NOT AVBL
SANTA MONICA BAY 0100   61 62  250/  8/ 10 1012.4F         5/ 6



USA.gov is the U.S. government's official web portal to all federal, state and local government web resources and services.